Погода в Ковылке

Россия / Тамбовская область     52°38′05″N   42°22′42″E
темп.,
°C
ветер,
м/с
пор.,
м/с
влажн.,
%
обл.,
%
осадки,
мм/ч
давл.,
гПа
погр.,
м
19 апреля, пн
пн1900:00+9всв348599 0.3 101889
03:00+8всв379368 0.4 1018170
06:00+8всв4886100 0.3 1018295
09:00+8в688192 0.3 1018555
12:00+8в788589 1.8 1018700
15:00+8в71081100 1.8 1019812
18:00+8в61186100 0.0 1019784
21:00+7всв51084100 0.3 1019690
20 апреля, вт
вт2000:00+7в6990100 0.1 1019950
03:00+5в71191100 0.3 1019684
06:00+4в61191100 0.2 1019627
09:00+4в71390100 0.4 1019657
12:00+4вюв81490100 0.2 1018668
15:00+4вюв81688100 0.5 1017719
18:00+4вюв101990100 2.3 1013835
21:00+5вюв122393100 12.8 1010959
21 апреля, ср
ср2100:00+7юв122191100 4.3 1007879
03:00+8юв122191100 5.2 1006915
06:00+9ююв91585100 1.1 1005924
09:00+9ююв101787100 1.6 10071122
12:00+6ююз81386100 0.1 1010955
15:00+8ююз61179100 0.1 10131244
18:00+8ююз4784100 0.1 1015385
21:00+6ююз3489100 0.1 101762
22 апреля, чт
чт2200:00+5ю2286100 0.0 101824
03:00+6ююв3487100 0.2 101890
06:00+6ююв379854 1.3 1018189
09:00+10зюз57746 1.6 1019825
12:00+12зюз56525 0.0 10201655
15:00+14зюз464512 0.0 10212001
18:00+12ююз3664100 0.0 1022176
21:00+11ююв3667100 0.0 1022114
23 апреля, пт
пт2300:00+10ю3872100 0.0 1023179
03:00+8ю368231 0.0 1023116
06:00+7ю378615 0.0 1023146
09:00+12ю57675 0.0 1023556
12:00+16ю56535 0.3 10221523
15:00+16ююз565184 2.1 10211658
18:00+14ююв586498 0.9 1020310
21:00+10ю398151 2.3 1020272